Date String (YYYY-MM-DD hh:mm:ss) UTC,Instrument flags,Ambient pressure (hPa),Sample flow (lpm),Bypass flow (lpm),Sample temperature (°C),Ambient temperature (°C),ASC tube jacket temperature (°C),LED temperature (°C),Box temperature (°C),Sample RH (%),Span deviation,Mass concentration (μg/m³),Mass concentration (μg/m³),Mass concentration (μg/m³)
DateTimeUTC,F1_M11,P_M11,Q1_M11,Q2_M11,T1_M11,T2_M11,T3_M11,T4_M11,T5_M11,U1_M11,ZSPAN_M11,X0_M11,X2_M11,X1_M11
2022-01-17 22:00:00,,0821.2,5.01,0.00,26.4,25.6,00.0,35.4,28.2,07.9,0000.0,0012.93,0006.92,0006.39
2022-01-17 22:01:00,,0821.2,5.00,0.00,26.4,25.6,00.0,35.4,28.2,08.1,0000.0,0012.91,0006.96,0006.42
2022-01-17 22:02:00,,0821.3,5.00,0.00,26.4,25.6,00.0,35.4,28.2,08.2,0000.0,0012.82,0006.99,0006.43
2022-01-17 22:03:00,,0821.3,5.02,0.00,26.4,25.6,00.0,35.4,28.2,08.9,0000.0,0012.93,0007.00,0006.44
2022-01-17 22:04:00,,0821.4,4.99,0.00,26.4,25.6,00.0,35.4,28.2,09.7,0000.0,0011.92,0006.99,0006.41
2022-01-17 22:05:00,,0821.4,5.01,0.00,26.4,25.6,00.0,35.4,28.2,09.6,0000.0,0011.61,0006.95,0006.38
2022-01-17 22:06:00,,0821.4,5.00,0.00,26.4,25.6,00.0,35.4,28.2,08.7,0000.0,0012.17,0006.91,0006.34
2022-01-17 22:07:00,,0821.3,4.99,0.00,26.4,25.6,00.0,35.4,28.2,08.8,0000.0,0012.28,0006.86,0006.30
2022-01-17 22:08:00,,0821.3,5.01,0.00,26.4,25.6,00.0,35.4,28.2,08.6,0000.0,0012.18,0006.81,0006.27
2022-01-17 22:09:00,,0821.3,4.99,0.00,26.4,25.6,00.0,35.4,28.2,08.2,0000.0,0012.64,0006.85,0006.31
2022-01-17 22:10:00,,0821.4,5.01,0.00,26.4,25.6,00.0,35.4,28.2,08.3,0000.0,0012.85,0006.88,0006.33
2022-01-17 22:11:00,,0821.4,4.98,0.00,26.4,25.6,00.0,35.4,28.2,08.4,0000.0,0013.07,0006.95,0006.35
2022-01-17 22:12:00,,0821.4,5.02,0.00,26.4,25.6,00.0,35.4,28.2,08.6,0000.0,0013.21,0006.95,0006.32
2022-01-17 22:13:00,,0821.4,4.98,0.00,26.4,25.6,00.0,35.4,28.2,08.7,0000.0,0013.32,0006.92,0006.28
2022-01-17 22:14:00,,0821.4,5.02,0.00,26.4,25.6,00.0,35.4,28.2,08.6,0000.0,0012.62,0006.89,0006.29
2022-01-17 22:15:00,,0821.4,4.99,0.00,26.4,25.6,00.0,35.4,28.2,08.1,0000.0,0012.55,0006.98,0006.40
2022-01-17 22:16:00,,0821.5,5.01,0.00,26.4,25.6,00.0,35.4,28.2,07.5,0000.0,0012.36,0007.05,0006.48
2022-01-17 22:17:00,,0821.4,5.00,0.00,26.4,25.6,00.0,35.4,28.2,06.3,0000.0,0011.59,0006.87,0006.35
2022-01-17 22:18:00,,0821.5,4.99,0.00,26.4,25.6,00.0,35.4,28.3,06.5,0000.0,0011.27,0006.68,0006.19
2022-01-17 22:19:00,,0821.5,5.00,0.00,26.5,25.6,00.0,35.4,28.2,07.2,0000.0,0011.31,0006.62,0006.12
2022-01-17 22:20:00,,0821.5,4.99,0.00,26.5,25.6,00.0,35.4,28.2,07.9,0000.0,0011.03,0006.56,0006.04
2022-01-17 22:21:00,,0821.5,5.01,0.00,26.4,25.6,00.0,35.4,28.2,08.3,0000.0,0011.06,0006.54,0006.00
2022-01-17 22:22:00,,0821.4,4.99,0.00,26.4,25.6,00.0,35.4,28.2,07.6,0000.0,0011.40,0006.44,0005.92
2022-01-17 22:23:00,,0821.4,5.01,0.00,26.5,25.6,00.0,35.4,28.2,06.9,0000.0,0011.36,0006.31,0005.82
2022-01-17 22:24:00,,0821.4,5.00,0.00,26.5,25.6,00.0,35.4,28.2,06.6,0000.0,0011.00,0006.17,0005.72
2022-01-17 22:25:00,,0821.4,4.99,0.00,26.5,25.6,00.0,35.4,28.2,07.4,0000.0,0010.98,0006.08,0005.63
2022-01-17 22:26:00,,0821.4,5.02,0.00,26.5,25.6,00.0,35.4,28.2,08.3,0000.0,0011.42,0006.02,0005.56
2022-01-17 22:27:00,,0821.4,4.98,0.00,26.5,25.6,00.0,35.4,28.2,07.9,0000.0,0011.61,0005.97,0005.53
2022-01-17 22:28:00,,0821.4,5.01,0.00,26.4,25.6,00.0,35.4,28.2,07.4,0000.0,0012.18,0006.09,0005.64
2022-01-17 22:29:00,,0821.3,5.00,0.00,26.5,25.6,00.0,35.4,28.2,07.1,0000.0,0012.19,0006.22,0005.76
2022-01-17 22:30:00,,0821.2,5.00,0.00,26.4,25.6,00.0,35.4,28.2,06.8,0000.0,0012.01,0006.26,0005.81
2022-01-17 22:31:00,,0821.2,5.00,0.00,26.5,25.6,00.0,35.4,28.3,06.6,0000.0,0011.78,0006.19,0005.77
2022-01-17 22:32:00,,0821.1,5.00,0.00,26.5,25.6,00.0,35.4,28.2,07.0,0000.0,0011.51,0006.12,0005.74
2022-01-17 22:33:00,,0821.0,5.01,0.00,26.5,25.6,00.0,35.4,28.3,06.8,0000.0,0010.93,0006.09,0005.73
2022-01-17 22:34:00,,0821.0,4.99,0.00,26.5,25.6,00.0,35.4,28.3,06.8,0000.0,0010.82,0006.14,0005.76
2022-01-17 22:35:00,,0821.0,5.01,0.00,26.5,25.6,00.0,35.4,28.2,06.2,0000.0,0010.75,0006.12,0005.75
2022-01-17 22:36:00,,0821.0,5.00,0.00,26.4,25.6,00.0,35.4,28.2,05.9,0000.0,0010.62,0005.91,0005.56
2022-01-17 22:37:00,,0820.9,5.00,0.00,26.4,25.6,00.0,35.4,28.2,05.8,0000.0,0010.10,0005.66,0005.31
2022-01-17 22:38:00,,0820.9,4.98,0.00,26.4,25.6,00.0,35.4,28.2,05.9,0000.0,0009.59,0005.47,0005.12
2022-01-17 22:39:00,,0820.9,5.00,0.00,26.4,25.6,00.0,35.4,28.2,05.9,0000.0,0008.83,0005.31,0004.97
2022-01-17 22:40:00,,0821.0,5.01,0.00,26.4,25.6,00.0,35.4,28.2,06.0,0000.0,0008.41,0005.06,0004.73
2022-01-17 22:41:00,,0821.0,4.98,0.00,26.4,25.6,00.0,35.4,28.2,06.2,0000.0,0008.15,0004.81,0004.47
2022-01-17 22:42:00,,0820.9,5.00,0.00,26.4,25.6,00.0,35.4,28.2,06.4,0000.0,0008.12,0004.59,0004.23
2022-01-17 22:43:00,,0820.9,4.99,0.00,26.4,25.6,00.0,35.4,28.2,06.4,0000.0,0008.56,0004.33,0003.99
2022-01-17 22:44:00,,0820.8,5.02,0.00,26.4,25.6,00.0,35.4,28.2,06.4,0000.0,0008.86,0004.03,0003.70
2022-01-17 22:45:00,,0820.8,4.99,0.00,26.4,25.6,00.0,35.4,28.2,06.5,0000.0,0008.97,0003.78,0003.46
2022-01-17 22:46:00,,0820.9,5.00,0.00,26.4,25.6,00.0,35.4,28.2,06.5,0000.0,0009.19,0003.59,0003.27
2022-01-17 22:47:00,,0821.0,5.00,0.00,26.4,25.6,00.0,35.4,28.2,06.7,0000.0,0009.16,0003.62,0003.26
2022-01-17 22:48:00,,0821.0,4.99,0.00,26.4,25.6,00.0,35.4,28.2,06.4,0000.0,0008.85,0003.64,0003.28
2022-01-17 22:49:00,,0821.0,5.01,0.00,26.4,25.6,00.0,35.4,28.2,07.5,0000.0,0008.81,0003.61,0003.25
2022-01-17 22:50:00,,0820.9,4.99,0.00,26.4,25.6,00.0,35.4,28.2,07.6,0000.0,0009.08,0003.63,0003.27
2022-01-17 22:51:00,,0821.0,5.01,0.00,26.4,25.6,00.0,35.4,28.2,07.0,0000.0,0010.18,0003.72,0003.36
2022-01-17 22:52:00,,0821.0,4.99,0.00,26.4,25.6,00.0,35.4,28.2,07.2,0000.0,0010.69,0003.81,0003.44
2022-01-17 22:53:00,,0821.0,5.01,0.00,26.4,25.6,00.0,35.4,28.2,07.9,0000.0,0010.64,0003.96,0003.58
2022-01-17 22:54:00,,0821.0,5.00,0.00,26.4,25.6,00.0,35.4,28.2,06.9,0000.0,0010.18,0004.23,0003.84
2022-01-17 22:55:00,,0820.8,4.99,0.00,26.4,25.6,00.0,35.4,28.2,06.7,0000.0,0009.60,0004.40,0004.02
2022-01-17 22:56:00,,0820.9,5.01,0.00,26.4,25.6,00.0,35.4,28.2,06.7,0000.0,0009.17,0004.42,0004.07
2022-01-17 22:57:00,,0820.9,5.00,0.00,26.4,25.6,00.0,35.4,28.2,06.7,0000.0,0008.73,0004.43,0004.10
2022-01-17 22:58:00,,0820.8,5.00,0.00,26.4,25.6,00.0,35.4,28.2,06.7,0000.0,0008.78,0004.42,0004.10
2022-01-17 22:59:00,,0820.8,5.01,0.00,26.4,25.6,00.0,35.4,28.2,06.7,0000.0,0008.85,0004.42,0004.11
